Flag for Brazil Weather past 2 weeks in Belém, Para, Brazil

Now
77 °F

Clear.


Feels Like: 78 °F
Forecast: 75 / 89 °F
Wind: 3 mph from Southeast

Location: Belem Aeroporto

Current Time: Oct 21, 2014 at 2:56:13 AM

Latest Report: Oct 21, 2014 at 2:00 AM


Visibility: 10 mi

Pressure: 29.83 "Hg

Humidity: 89%

Dew point: 73 °F

Location of BelémLocation

Historic Weather in Belém — Graph

°F

Belém temperature yesterday

Maximum temperature yesterday: 88 °F (at 12:00 PM)
Minimum temperature yesterday: 72 °F (at 2:00 AM)
Average temperature yesterday: 81 °F

Past Weeks' High & Low Weather Summary

 TemperatureHumidityPressure
High91 °F (Oct 6, 1:00 PM)100% (Oct 7, 4:00 PM)32.55 "Hg (Oct 7, 4:00 PM)
Low43 °F (Oct 7, 4:00 PM)52% (Oct 18, 2:00 PM)29.74 "Hg (Oct 8, 4:00 PM)
Average80 °F80%29.87 "Hg
* Reported Oct 6 1:00 AM — Oct 21 1:00 AM, Belém, Weather by CustomWeather, © 2014

Note: Actual official high and low records may vary slightly from our data, if they occured in-between our weather recording intervals... More about our weather records

Advertising

Belém weather history for previous 24 hours

 ConditionsComfort  
Time TempWeatherWind HumidityBarometerVisibility
1:00 AM
Oct 21
79 °FPassing clouds.3 mph84%29.86 "HgN/A
12:00 AM79 °FPassing clouds.6 mph84%29.86 "HgN/A
11:00 PM
Oct 20
79 °FPassing clouds.12 mph84%29.86 "HgN/A
7:00 PM82 °FScattered clouds.10 mph74%29.80 "HgN/A
5:00 PM86 °FScattered clouds.9 mph70%29.80 "HgN/A
4:00 PM86 °FPartly sunny.8 mph70%29.86 "HgN/A
3:00 PM86 °FPartly sunny.9 mph70%29.80 "HgN/A
2:00 PM86 °FPartly sunny.7 mph62%29.83 "HgN/A
1:00 PM86 °FPartly sunny.6 mph66%29.86 "HgN/A
12:00 PM88 °FPartly sunny.2 mph59%29.86 "HgN/A
11:00 AM86 °FPartly sunny.6 mph62%29.89 "HgN/A
10:00 AM86 °FScattered clouds.7 mph66%29.92 "HgN/A
9:00 AM82 °FScattered clouds.9 mph74%29.92 "HgN/A
8:00 AM81 °FPassing clouds.12 mph79%29.89 "HgN/A
7:00 AM77 °FPassing clouds.5 mph89%29.86 "HgN/A
6:00 AM75 °FClear.5 mph94%29.83 "Hg10 mi
5:00 AM75 °FClear.5 mph94%29.80 "Hg10 mi
4:00 AM75 °FClear.3 mph94%29.80 "Hg10 mi
3:00 AM75 °FClear.3 mph94%29.80 "Hg10 mi
2:00 AM72 °FClear.3 mph100%29.83 "Hg10 mi
Weather by CustomWeather, © 2014

See weather overviewHow to use our weather pages